Regional Weather Roundup
Issued by NWS

Home | Current Version | Previous Version | Text Only | Print | Product List | Glossary On
Versions: 1 2 3 4 5 6 7 8 9 10 11 12 13 14 15 16 17 18 19 20 21 22 23 24 25 26 27 28 29 30 31 32 33 34 35 36 37 38 39 40 41 42 43 44 45 46 47 48 49 50
000
ASUS44 KOUN 190310
RWROK

WEATHER ROUNDUP FOR OKLAHOMA
NATIONAL WEATHER SERVICE NORMAN OK
900 PM CST THU DEC 18 2014

NOTE: "FAIR" INDICATES FEW OR NO CLOUDS BELOW 12,000 FEET WITH NO
      SIGNIFICANT WEATHER AND/OR OBSTRUCTIONS TO VISIBILITY.

OKZ001>007-009>012-014-015-017-190400-
NORTHWEST OKLAHOMA AND THE PANHANDLE

CITY           SKY/WX    TMP DP  RH WIND       PRES   REMARKS
GAGE           CLOUDY    37  36  96 CALM      30.18S
ENID/WOODRING  PTCLDY    37  36  93 N6        30.22R WCI  33
$$

OKZ016-021>023-033>039-044-045-190400-
SOUTHWEST OKLAHOMA

CITY           SKY/WX    TMP DP  RH WIND       PRES   REMARKS
LAWTON/REGL    CLOUDY    43  41  93 NE5       30.19S
LAWTON/FT SILL CLOUDY    43  43 100 NE6       30.18R
FREDERICK      CLOUDY    43  41  93 NE9       30.16S FOG
CLINTON        CLOUDY    40  37  89 NE10      30.20R WCI  33
HOBART         CLOUDY    40  39  97 NE8       30.20R WCI  34
ALTUS AFB      CLOUDY    42  42 100 NE8       30.19R
$$

OKZ018>020-024>031-190400-
CENTRAL OKLAHOMA

CITY           SKY/WX    TMP DP  RH WIND       PRES   REMARKS
OKLAHOMA CITY  CLOUDY    41  38  89 NE8       30.20R FOG
OKC/WILEY POST CLOUDY    40  38  93 N8        30.21R FOG     WCI  34
STILLWATER     CLOUDY    40  36  86 N6        30.22R
GUTHRIE        CLOUDY    40  38  93 CALM      30.22R FOG
$$

OKZ008-013-054>072-190400-
NORTHEAST OKLAHOMA

CITY           SKY/WX    TMP DP  RH WIND       PRES   REMARKS
TULSA          CLOUDY    40  38  93 N7        30.22S
TULSA/JONES    CLOUDY    40  38  93 NE5       30.23R
PONCA CITY     CLOUDY    38  33  82 N6        30.23R WCI  33
BARTLESVILLE   CLOUDY    37  35  92 N3        30.25S
MUSKOGEE       CLOUDY    42  38  85 CALM      30.24R
$$

OKZ032-040>043-046>053-073>077-190400-
SOUTH CENTRAL/SOUTHEAST OKLAHOMA

CITY           SKY/WX    TMP DP  RH WIND       PRES   REMARKS
ARDMORE/DWNTWN CLOUDY    43  43 100 NE6       30.19R FOG
MCALESTER      CLOUDY    43  40  89 NE5       30.21S
$$




USA.gov is the U.S. government's official web portal to all federal, state and local government web resources and services.